Location: Henham
(51.9333°N, 0.2500°E)
Time: 01:36:13
(UTC+00:00)

ARGOS - Pass Details

Date: 23 October 2019
Orbit: 820 x 835 km, 98.5° (Epoch: 22 November)

Event Time Altitude Azimuth Distance (km) Brightness Sun altitude
Exits shadow 20:09:21 63° 293° (WNW) 935 3.5 -31.1°
Drops below altitude 10° 20:14:15 10° 341° (NNW) 2,460 6.1 -31.8°
Sets 20:16:38 0° 344° (NNW) 3,398 6.9 -32.1°
